contact:dominique.lefevre@mio.osupytheas.fr, maurice.libes@osupytheas.fr, didier.mallarino@osupytheas.fr
Project:EMSO http://www.emso-fr.org/EMSO-France
Depth: 2436.0 m
Title:EMSO Ligure Ouest : Data MII capteur MICROCAT
DateTime_Computer,Latitude,Longitude,Temperature,Conductivity,Pressure,DateTime_Instrument
DateTime_Computer,Latitude,Longitude,degC,S m-1,dbar,DateTime_Instrument
2021-01-04T00:02:45Z,42.805,6.029,13.2982,4.59988,2470.18,2021-1-04T02:03:45Z
2021-01-04T00:05:48Z,42.805,6.029,13.2983,4.59987,2470.143,2021-1-04T02:06:48Z
2021-01-04T00:08:51Z,42.805,6.029,13.2984,4.59988,2470.156,2021-1-04T02:09:52Z
2021-01-04T00:11:54Z,42.805,6.029,13.2980,4.59987,2470.156,2021-1-04T02:12:55Z
2021-01-04T00:14:57Z,42.805,6.029,13.2986,4.59987,2470.133,2021-1-04T02:15:58Z
2021-01-04T00:18:00Z,42.805,6.029,13.2989,4.59987,2470.156,2021-1-04T02:19:01Z
2021-01-04T00:21:03Z,42.805,6.029,13.2986,4.59989,2470.133,2021-1-04T02:22:04Z
2021-01-04T00:24:07Z,42.805,6.029,13.2984,4.59988,2470.171,2021-1-04T02:25:07Z
2021-01-04T00:27:10Z,42.805,6.029,13.2984,4.59988,2470.171,2021-1-04T02:28:10Z
2021-01-04T00:30:13Z,42.805,6.029,13.2988,4.59988,2470.133,2021-1-04T02:31:13Z
2021-01-04T00:33:16Z,42.805,6.029,13.2983,4.59988,2470.171,2021-1-04T02:34:16Z
2021-01-04T00:36:19Z,42.805,6.029,13.2983,4.59987,2470.133,2021-1-04T02:37:20Z
2021-01-04T00:39:22Z,42.805,6.029,13.2982,4.59988,2470.147,2021-1-04T02:40:23Z
2021-01-04T00:42:25Z,42.805,6.029,13.2989,4.59989,2470.133,2021-1-04T02:43:26Z
2021-01-04T00:45:28Z,42.805,6.029,13.2982,4.59987,2470.133,2021-1-04T02:46:29Z
2021-01-04T00:48:32Z,42.805,6.029,13.2984,4.59987,2470.147,2021-1-04T02:49:32Z
2021-01-04T00:51:35Z,42.805,6.029,13.2986,4.59988,2470.133,2021-1-04T02:52:35Z
2021-01-04T00:54:38Z,42.805,6.029,13.2983,4.59988,2470.133,2021-1-04T02:55:38Z
2021-01-04T00:57:41Z,42.805,6.029,13.2988,4.59988,2470.124,2021-1-04T02:58:41Z
2021-01-04T01:00:44Z,42.805,6.029,13.2986,4.59988,2470.147,2021-1-04T03:01:45Z
2021-01-04T01:03:47Z,42.805,6.029,13.2989,4.59989,2470.133,2021-1-04T03:04:48Z
2021-01-04T01:06:50Z,42.805,6.029,13.2983,4.59990,2470.133,2021-1-04T03:07:51Z
2021-01-04T01:09:53Z,42.805,6.029,13.2986,4.59989,2470.147,2021-1-04T03:10:54Z
2021-01-04T01:12:56Z,42.805,6.029,13.2987,4.59991,2470.11,2021-1-04T03:13:57Z
2021-01-04T01:16:00Z,42.805,6.029,13.2984,4.59988,2470.11,2021-1-04T03:17:00Z
2021-01-04T01:19:03Z,42.805,6.029,13.2985,4.59990,2470.147,2021-1-04T03:20:03Z
2021-01-04T01:22:06Z,42.805,6.029,13.2979,4.59988,2470.171,2021-1-04T03:23:06Z
2021-01-04T01:25:09Z,42.805,6.029,13.2983,4.59988,2470.133,2021-1-04T03:26:09Z
2021-01-04T01:28:12Z,42.805,6.029,13.2982,4.59988,2470.147,2021-1-04T03:29:13Z
2021-01-04T01:31:15Z,42.805,6.029,13.2982,4.59989,2470.11,2021-1-04T03:32:16Z
2021-01-04T01:34:18Z,42.805,6.029,13.2984,4.59988,2470.147,2021-1-04T03:35:19Z
2021-01-04T01:37:21Z,42.805,6.029,13.2982,4.59988,2470.133,2021-1-04T03:38:22Z
2021-01-04T01:40:25Z,42.805,6.029,13.2990,4.59989,2470.133,2021-1-04T03:41:25Z
2021-01-04T01:43:28Z,42.805,6.029,13.2983,4.59988,2470.1,2021-1-04T03:44:28Z
2021-01-04T01:46:31Z,42.805,6.029,13.2983,4.59990,2470.1,2021-1-04T03:47:31Z
2021-01-04T01:49:34Z,42.805,6.029,13.2987,4.59990,2470.087,2021-1-04T03:50:34Z
2021-01-04T01:52:37Z,42.805,6.029,13.2986,4.59988,2470.11,2021-1-04T03:53:37Z
2021-01-04T01:55:40Z,42.805,6.029,13.2982,4.59991,2470.124,2021-1-04T03:56:41Z
2021-01-04T01:58:43Z,42.805,6.029,13.2987,4.59989,2470.087,2021-1-04T03:59:44Z
2021-01-04T02:01:46Z,42.805,6.029,13.2989,4.59989,2470.087,2021-1-04T04:02:47Z
2021-01-04T02:04:49Z,42.805,6.029,13.2986,4.59989,2470.11,2021-1-04T04:05:50Z
2021-01-04T02:07:53Z,42.805,6.029,13.2983,4.59988,2470.087,2021-1-04T04:08:53Z
2021-01-04T02:10:56Z,42.805,6.029,13.2987,4.59988,2470.087,2021-1-04T04:11:56Z
2021-01-04T02:13:59Z,42.805,6.029,13.2983,4.59991,2470.087,2021-1-04T04:14:59Z
2021-01-04T02:17:02Z,42.805,6.029,13.2986,4.59989,2470.11,2021-1-04T04:18:02Z
2021-01-04T02:20:05Z,42.805,6.029,13.2988,4.59987,2470.063,2021-1-04T04:21:06Z
2021-01-04T02:23:08Z,42.805,6.029,13.2987,4.59990,2470.087,2021-1-04T04:24:09Z
2021-01-04T02:26:11Z,42.805,6.029,13.2986,4.59991,2470.1,2021-1-04T04:27:12Z
2021-01-04T02:29:14Z,42.805,6.029,13.2988,4.59989,2470.063,2021-1-04T04:30:15Z
2021-01-04T02:32:17Z,42.805,6.029,13.2984,4.59989,2470.063,2021-1-04T04:33:18Z
2021-01-04T02:35:21Z,42.805,6.029,13.2986,4.59994,2470.087,2021-1-04T04:36:21Z
2021-01-04T02:38:24Z,42.805,6.029,13.2985,4.59988,2470.063,2021-1-04T04:39:24Z
2021-01-04T02:41:27Z,42.805,6.029,13.2982,4.59989,2470.087,2021-1-04T04:42:27Z
2021-01-04T02:44:30Z,42.805,6.029,13.2986,4.59990,2470.1,2021-1-04T04:45:30Z
2021-01-04T02:47:33Z,42.805,6.029,13.2987,4.59990,2470.11,2021-1-04T04:48:34Z
2021-01-04T02:50:36Z,42.805,6.029,13.2986,4.59992,2470.077,2021-1-04T04:51:37Z
2021-01-04T02:53:39Z,42.805,6.029,13.2983,4.59989,2470.1,2021-1-04T04:54:40Z
2021-01-04T02:56:42Z,42.805,6.029,13.2990,4.59989,2470.11,2021-1-04T04:57:43Z
2021-01-04T02:59:46Z,42.805,6.029,13.2990,4.59991,2470.1,2021-1-04T05:00:46Z
2021-01-04T03:02:49Z,42.805,6.029,13.2983,4.59989,2470.087,2021-1-04T05:03:49Z
2021-01-04T03:05:52Z,42.805,6.029,13.2986,4.59990,2470.053,2021-1-04T05:06:52Z
2021-01-04T03:08:55Z,42.805,6.029,13.2988,4.59988,2470.063,2021-1-04T05:09:55Z
2021-01-04T03:11:58Z,42.805,6.029,13.2983,4.59989,2470.087,2021-1-04T05:12:59Z
2021-01-04T03:15:01Z,42.805,6.029,13.2984,4.59990,2470.077,2021-1-04T05:16:02Z
2021-01-04T03:18:04Z,42.805,6.029,13.2982,4.59994,2470.063,2021-1-04T05:19:05Z
2021-01-04T03:21:07Z,42.805,6.029,13.2988,4.59989,2470.063,2021-1-04T05:22:08Z
2021-01-04T03:24:11Z,42.805,6.029,13.2984,4.59988,2470.053,2021-1-04T05:25:11Z
2021-01-04T03:27:14Z,42.805,6.029,13.2988,4.59990,2470.063,2021-1-04T05:28:14Z
2021-01-04T03:30:17Z,42.805,6.029,13.2986,4.59990,2470.04,2021-1-04T05:31:17Z
2021-01-04T03:33:20Z,42.805,6.029,13.2985,4.59992,2470.063,2021-1-04T05:34:20Z
2021-01-04T03:36:23Z,42.805,6.029,13.2987,4.59992,2470.04,2021-1-04T05:37:23Z
2021-01-04T03:39:26Z,42.805,6.029,13.2985,4.59990,2470.053,2021-1-04T05:40:27Z
2021-01-04T03:42:29Z,42.805,6.029,13.2986,4.59991,2470.017,2021-1-04T05:43:30Z
2021-01-04T03:45:32Z,42.805,6.029,13.2983,4.59988,2470.04,2021-1-04T05:46:33Z
2021-01-04T03:48:35Z,42.805,6.029,13.2982,4.59989,2470.017,2021-1-04T05:49:36Z
2021-01-04T03:51:39Z,42.805,6.029,13.2986,4.59993,2470.053,2021-1-04T05:52:39Z
2021-01-04T03:54:42Z,42.805,6.029,13.2987,4.59991,2470.04,2021-1-04T05:55:42Z
2021-01-04T03:57:45Z,42.805,6.029,13.2987,4.59991,2470.053,2021-1-04T05:58:45Z
2021-01-04T04:00:48Z,42.805,6.029,13.2989,4.59988,2470.053,2021-1-04T06:01:48Z
2021-01-04T04:03:51Z,42.805,6.029,13.2986,4.59989,2470.063,2021-1-04T06:04:52Z
2021-01-04T04:06:54Z,42.805,6.029,13.2990,4.59988,2470.04,2021-1-04T06:07:55Z
2021-01-04T04:09:57Z,42.805,6.029,13.2987,4.59989,2470.053,2021-1-04T06:10:58Z
2021-01-04T04:13:00Z,42.805,6.029,13.2990,4.59989,2470.063,2021-1-04T06:14:01Z
2021-01-04T04:16:03Z,42.805,6.029,13.2986,4.59989,2470.04,2021-1-04T06:17:04Z
2021-01-04T04:19:07Z,42.805,6.029,13.2986,4.59990,2470.063,2021-1-04T06:20:07Z
2021-01-04T04:22:10Z,42.805,6.029,13.2986,4.59989,2470.03,2021-1-04T06:23:10Z
2021-01-04T04:25:13Z,42.805,6.029,13.2985,4.59991,2469.993,2021-1-04T06:26:13Z
2021-01-04T04:28:16Z,42.805,6.029,13.2986,4.59989,2470.053,2021-1-04T06:29:16Z
2021-01-04T04:31:19Z,42.805,6.029,13.2988,4.59989,2470.03,2021-1-04T06:32:20Z
2021-01-04T04:34:22Z,42.805,6.029,13.2987,4.59991,2470.053,2021-1-04T06:35:23Z
2021-01-04T04:37:25Z,42.805,6.029,13.2989,4.59990,2470.077,2021-1-04T06:38:26Z
2021-01-04T04:40:28Z,42.805,6.029,13.2990,4.59990,2470.087,2021-1-04T06:41:29Z
2021-01-04T04:43:32Z,42.805,6.029,13.2985,4.59988,2470.017,2021-1-04T06:44:32Z
2021-01-04T04:46:35Z,42.805,6.029,13.2989,4.59989,2470.04,2021-1-04T06:47:35Z
2021-01-04T04:49:38Z,42.805,6.029,13.2989,4.59989,2470.017,2021-1-04T06:50:38Z
2021-01-04T04:52:41Z,42.805,6.029,13.2990,4.59991,2470.04,2021-1-04T06:53:41Z
2021-01-04T04:55:44Z,42.805,6.029,13.2984,4.59990,2470.053,2021-1-04T06:56:45Z
2021-01-04T04:58:47Z,42.805,6.029,13.2986,4.59990,2470.04,2021-1-04T06:59:48Z
2021-01-04T05:01:50Z,42.805,6.029,13.2985,4.59988,2470.04,2021-1-04T07:02:51Z
2021-01-04T05:04:53Z,42.805,6.029,13.2986,4.59990,2470.04,2021-1-04T07:05:54Z
2021-01-04T05:07:57Z,42.805,6.029,13.2985,4.59990,2470.053,2021-1-04T07:08:57Z
2021-01-04T05:11:00Z,42.805,6.029,13.2986,4.59993,2470.077,2021-1-04T07:12:00Z
2021-01-04T05:14:03Z,42.805,6.029,13.2984,4.59989,2470.063,2021-1-04T07:15:03Z
2021-01-04T05:17:06Z,42.805,6.029,13.2990,4.59989,2470.077,2021-1-04T07:18:06Z
2021-01-04T05:20:09Z,42.805,6.029,13.2990,4.59992,2470.1,2021-1-04T07:21:09Z
2021-01-04T05:23:12Z,42.805,6.029,13.2991,4.59990,2470.04,2021-1-04T07:24:13Z
2021-01-04T05:26:15Z,42.805,6.029,13.2986,4.59988,2470.026,2021-1-04T07:27:16Z
2021-01-04T05:29:18Z,42.805,6.029,13.2985,4.59993,2470.077,2021-1-04T07:30:19Z
2021-01-04T05:32:21Z,42.805,6.029,13.2986,4.59989,2470.053,2021-1-04T07:33:22Z
2021-01-04T05:35:25Z,42.805,6.029,13.2985,4.59990,2470.04,2021-1-04T07:36:25Z
2021-01-04T05:38:28Z,42.805,6.029,13.2986,4.59995,2470.063,2021-1-04T07:39:28Z
2021-01-04T05:41:31Z,42.805,6.029,13.2987,4.59991,2470.077,2021-1-04T07:42:31Z
2021-01-04T05:44:34Z,42.805,6.029,13.2989,4.59989,2470.063,2021-1-04T07:45:34Z
2021-01-04T05:47:37Z,42.805,6.029,13.2986,4.59991,2470.063,2021-1-04T07:48:38Z
2021-01-04T05:50:40Z,42.805,6.029,13.2986,4.59989,2470.077,2021-1-04T07:51:41Z
2021-01-04T05:53:43Z,42.805,6.029,13.2991,4.59990,2470.053,2021-1-04T07:54:44Z
2021-01-04T05:56:46Z,42.805,6.029,13.2988,4.59990,2470.077,2021-1-04T07:57:47Z
2021-01-04T05:59:49Z,42.805,6.029,13.2989,4.59990,2470.053,2021-1-04T08:00:50Z
2021-01-04T06:02:53Z,42.805,6.029,13.2989,4.59994,2470.077,2021-1-04T08:03:53Z
2021-01-04T06:05:56Z,42.805,6.029,13.2987,4.59989,2470.063,2021-1-04T08:06:56Z
2021-01-04T06:08:59Z,42.805,6.029,13.2988,4.59989,2470.077,2021-1-04T08:09:59Z
2021-01-04T06:12:02Z,42.805,6.029,13.2990,4.59991,2470.087,2021-1-04T08:13:02Z
2021-01-04T06:15:05Z,42.805,6.029,13.2987,4.59990,2470.077,2021-1-04T08:16:06Z
2021-01-04T06:18:08Z,42.805,6.029,13.2987,4.59991,2470.087,2021-1-04T08:19:09Z
2021-01-04T06:21:11Z,42.805,6.029,13.2991,4.59991,2470.11,2021-1-04T08:22:12Z
2021-01-04T06:24:14Z,42.805,6.029,13.2986,4.59990,2470.087,2021-1-04T08:25:15Z
2021-01-04T06:27:18Z,42.805,6.029,13.2989,4.59989,2470.063,2021-1-04T08:28:18Z
2021-01-04T06:30:21Z,42.805,6.029,13.2989,4.59991,2470.11,2021-1-04T08:31:21Z
2021-01-04T06:33:24Z,42.805,6.029,13.2986,4.59994,2470.1,2021-1-04T08:34:24Z
2021-01-04T06:36:27Z,42.805,6.029,13.2986,4.59991,2470.087,2021-1-04T08:37:27Z
2021-01-04T06:39:30Z,42.805,6.029,13.2987,4.59991,2470.087,2021-1-04T08:40:31Z
2021-01-04T06:42:33Z,42.805,6.029,13.2988,4.59990,2470.087,2021-1-04T08:43:34Z
2021-01-04T06:45:36Z,42.805,6.029,13.2988,4.59991,2470.11,2021-1-04T08:46:37Z
2021-01-04T06:48:39Z,42.805,6.029,13.2987,4.59991,2470.087,2021-1-04T08:49:40Z
2021-01-04T06:51:42Z,42.805,6.029,13.2986,4.59991,2470.124,2021-1-04T08:52:43Z
2021-01-04T06:54:46Z,42.805,6.029,13.2987,4.59994,2470.124,2021-1-04T08:55:46Z
2021-01-04T06:57:49Z,42.805,6.029,13.2988,4.59993,2470.11,2021-1-04T08:58:49Z
2021-01-04T07:00:52Z,42.805,6.029,13.2987,4.59990,2470.11,2021-1-04T09:01:52Z
2021-01-04T07:03:55Z,42.805,6.029,13.2988,4.59990,2470.11,2021-1-04T09:04:55Z
2021-01-04T07:06:58Z,42.805,6.029,13.2986,4.59989,2470.11,2021-1-04T09:07:59Z
2021-01-04T07:10:01Z,42.805,6.029,13.2986,4.59989,2470.147,2021-1-04T09:11:02Z
2021-01-04T07:13:04Z,42.805,6.029,13.2990,4.59991,2470.11,2021-1-04T09:14:05Z
2021-01-04T07:16:07Z,42.805,6.029,13.2989,4.59990,2470.124,2021-1-04T09:17:08Z
2021-01-04T07:19:11Z,42.805,6.029,13.2988,4.59989,2470.156,2021-1-04T09:20:11Z
2021-01-04T07:22:14Z,42.805,6.029,13.2985,4.59989,2470.156,2021-1-04T09:23:14Z
2021-01-04T07:25:17Z,42.805,6.029,13.2982,4.59990,2470.156,2021-1-04T09:26:17Z
2021-01-04T07:28:20Z,42.805,6.029,13.2985,4.59989,2470.133,2021-1-04T09:29:20Z
2021-01-04T07:31:23Z,42.805,6.029,13.2986,4.59990,2470.156,2021-1-04T09:32:24Z
2021-01-04T07:34:26Z,42.805,6.029,13.2988,4.59990,2470.156,2021-1-04T09:35:27Z
2021-01-04T07:37:29Z,42.805,6.029,13.2991,4.59990,2470.133,2021-1-04T09:38:30Z
2021-01-04T07:40:32Z,42.805,6.029,13.2987,4.59990,2470.171,2021-1-04T09:41:33Z
2021-01-04T07:43:35Z,42.805,6.029,13.2986,4.59989,2470.156,2021-1-04T09:44:36Z
2021-01-04T07:46:39Z,42.805,6.029,13.2987,4.59991,2470.194,2021-1-04T09:47:39Z
2021-01-04T07:49:42Z,42.805,6.029,13.2983,4.59989,2470.189,2021-1-04T09:50:42Z
2021-01-04T07:52:45Z,42.805,6.029,13.2986,4.59993,2470.171,2021-1-04T09:53:45Z
2021-01-04T07:55:48Z,42.805,6.029,13.2990,4.59992,2470.171,2021-1-04T09:56:48Z
2021-01-04T07:58:51Z,42.805,6.029,13.2987,4.59990,2470.194,2021-1-04T09:59:52Z
2021-01-04T08:01:54Z,42.805,6.029,13.2988,4.59990,2470.18,2021-1-04T10:02:55Z
2021-01-04T08:04:57Z,42.805,6.029,13.2983,4.59989,2470.194,2021-1-04T10:05:58Z
2021-01-04T08:08:00Z,42.805,6.029,13.2991,4.59988,2470.217,2021-1-04T10:09:01Z
2021-01-04T08:11:04Z,42.805,6.029,13.2986,4.59992,2470.166,2021-1-04T10:12:04Z
2021-01-04T08:14:07Z,42.805,6.029,13.2987,4.59989,2470.18,2021-1-04T10:15:07Z
2021-01-04T08:17:10Z,42.805,6.029,13.2988,4.59993,2470.194,2021-1-04T10:18:10Z
2021-01-04T08:20:13Z,42.805,6.029,13.2986,4.59991,2470.217,2021-1-04T10:21:13Z
2021-01-04T08:23:16Z,42.805,6.029,13.2986,4.59991,2470.203,2021-1-04T10:24:17Z
2021-01-04T08:26:19Z,42.805,6.029,13.2988,4.59989,2470.18,2021-1-04T10:27:20Z
2021-01-04T08:29:22Z,42.805,6.029,13.2984,4.59989,2470.194,2021-1-04T10:30:23Z
2021-01-04T08:32:25Z,42.805,6.029,13.2987,4.59989,2470.217,2021-1-04T10:33:26Z
2021-01-04T08:35:29Z,42.805,6.029,13.2986,4.59988,2470.203,2021-1-04T10:36:29Z
2021-01-04T08:38:32Z,42.805,6.029,13.2985,4.59992,2470.203,2021-1-04T10:39:32Z
2021-01-04T08:41:35Z,42.805,6.029,13.2986,4.59989,2470.203,2021-1-04T10:42:35Z
2021-01-04T08:44:38Z,42.805,6.029,13.2987,4.59991,2470.203,2021-1-04T10:45:38Z
2021-01-04T08:47:41Z,42.805,6.029,13.2984,4.59990,2470.227,2021-1-04T10:48:42Z
2021-01-04T08:50:44Z,42.805,6.029,13.2986,4.59989,2470.203,2021-1-04T10:51:45Z
2021-01-04T08:53:47Z,42.805,6.029,13.2982,4.59990,2470.217,2021-1-04T10:54:48Z
2021-01-04T08:56:50Z,42.805,6.029,13.2987,4.59989,2470.264,2021-1-04T10:57:51Z
2021-01-04T08:59:54Z,42.805,6.029,13.2983,4.59989,2470.227,2021-1-04T11:00:54Z
2021-01-04T09:02:57Z,42.805,6.029,13.2989,4.59988,2470.227,2021-1-04T11:03:57Z
2021-01-04T09:06:00Z,42.805,6.029,13.2985,4.59990,2470.203,2021-1-04T11:07:00Z
2021-01-04T09:09:03Z,42.805,6.029,13.2986,4.59988,2470.24,2021-1-04T11:10:03Z
2021-01-04T09:12:06Z,42.805,6.029,13.2986,4.59990,2470.264,2021-1-04T11:13:07Z
2021-01-04T09:15:09Z,42.805,6.029,13.2984,4.59990,2470.217,2021-1-04T11:16:10Z
2021-01-04T09:18:12Z,42.805,6.029,13.2989,4.59989,2470.25,2021-1-04T11:19:13Z
2021-01-04T09:21:15Z,42.805,6.029,13.2986,4.59988,2470.25,2021-1-04T11:22:16Z
2021-01-04T09:24:18Z,42.805,6.029,13.2987,4.59989,2470.24,2021-1-04T11:25:19Z
2021-01-04T09:27:22Z,42.805,6.029,13.2983,4.59990,2470.227,2021-1-04T11:28:22Z
2021-01-04T09:30:25Z,42.805,6.029,13.2987,4.59988,2470.227,2021-1-04T11:31:25Z
2021-01-04T09:33:28Z,42.805,6.029,13.2986,4.59990,2470.264,2021-1-04T11:34:28Z
2021-01-04T09:36:31Z,42.805,6.029,13.2985,4.59988,2470.273,2021-1-04T11:37:32Z
2021-01-04T09:39:34Z,42.805,6.029,13.2987,4.59988,2470.25,2021-1-04T11:40:35Z
2021-01-04T09:42:37Z,42.805,6.029,13.2982,4.59991,2470.25,2021-1-04T11:43:38Z
2021-01-04T09:45:40Z,42.805,6.029,13.2988,4.59990,2470.24,2021-1-04T11:46:41Z
2021-01-04T09:48:43Z,42.805,6.029,13.2987,4.59988,2470.273,2021-1-04T11:49:44Z
2021-01-04T09:51:47Z,42.805,6.029,13.2986,4.59988,2470.25,2021-1-04T11:52:47Z
2021-01-04T09:54:50Z,42.805,6.029,13.2983,4.59988,2470.273,2021-1-04T11:55:50Z
2021-01-04T09:57:53Z,42.805,6.029,13.2985,4.59988,2470.273,2021-1-04T11:58:53Z
2021-01-04T10:00:56Z,42.805,6.029,13.2983,4.59991,2470.273,2021-1-04T12:01:57Z
2021-01-04T10:03:59Z,42.805,6.029,13.2985,4.59988,2470.297,2021-1-04T12:05:00Z
2021-01-04T10:07:02Z,42.805,6.029,13.2985,4.59988,2470.273,2021-1-04T12:08:03Z
2021-01-04T10:10:05Z,42.805,6.029,13.2989,4.59988,2470.273,2021-1-04T12:11:06Z
2021-01-04T10:13:08Z,42.805,6.029,13.2986,4.59989,2470.287,2021-1-04T12:14:09Z
2021-01-04T10:16:12Z,42.805,6.029,13.2985,4.59988,2470.273,2021-1-04T12:17:12Z
2021-01-04T10:19:15Z,42.805,6.029,13.2983,4.59988,2470.25,2021-1-04T12:20:15Z
2021-01-04T10:22:18Z,42.805,6.029,13.2983,4.59988,2470.264,2021-1-04T12:23:18Z
2021-01-04T10:25:21Z,42.805,6.029,13.2985,4.59988,2470.25,2021-1-04T12:26:21Z
2021-01-04T10:28:24Z,42.805,6.029,13.2987,4.59988,2470.273,2021-1-04T12:29:25Z
2021-01-04T10:31:27Z,42.805,6.029,13.2985,4.59989,2470.273,2021-1-04T12:32:28Z
2021-01-04T10:34:30Z,42.805,6.029,13.2984,4.59989,2470.25,2021-1-04T12:35:31Z
2021-01-04T10:37:33Z,42.805,6.029,13.2984,4.59988,2470.25,2021-1-04T12:38:34Z
2021-01-04T10:40:37Z,42.805,6.029,13.2989,4.59988,2470.273,2021-1-04T12:41:37Z
2021-01-04T10:43:40Z,42.805,6.029,13.2983,4.59988,2470.287,2021-1-04T12:44:40Z
2021-01-04T10:46:43Z,42.805,6.029,13.2987,4.59988,2470.25,2021-1-04T12:47:43Z
2021-01-04T10:49:46Z,42.805,6.029,13.2982,4.59988,2470.287,2021-1-04T12:50:46Z
2021-01-04T10:52:49Z,42.805,6.029,13.2986,4.59991,2470.273,2021-1-04T12:53:50Z
2021-01-04T10:55:52Z,42.805,6.029,13.2985,4.59988,2470.273,2021-1-04T12:56:53Z
2021-01-04T10:58:55Z,42.805,6.029,13.2990,4.59989,2470.25,2021-1-04T12:59:56Z
2021-01-04T11:01:58Z,42.805,6.029,13.2985,4.59989,2470.273,2021-1-04T13:02:59Z
2021-01-04T11:05:02Z,42.805,6.029,13.2988,4.59989,2470.297,2021-1-04T13:06:02Z
2021-01-04T11:08:05Z,42.805,6.029,13.2983,4.59989,2470.25,2021-1-04T13:09:05Z
2021-01-04T11:11:08Z,42.805,6.029,13.2986,4.59993,2470.25,2021-1-04T13:12:08Z
2021-01-04T11:14:11Z,42.805,6.029,13.2985,4.59990,2470.297,2021-1-04T13:15:11Z
2021-01-04T11:17:14Z,42.805,6.029,13.2986,4.59990,2470.25,2021-1-04T13:18:15Z
2021-01-04T11:20:17Z,42.805,6.029,13.2984,4.59989,2470.287,2021-1-04T13:21:18Z
2021-01-04T11:23:20Z,42.805,6.029,13.2988,4.59990,2470.273,2021-1-04T13:24:21Z
2021-01-04T11:26:23Z,42.805,6.029,13.2986,4.59990,2470.25,2021-1-04T13:27:24Z
2021-01-04T11:29:27Z,42.805,6.029,13.2987,4.59990,2470.287,2021-1-04T13:30:27Z
2021-01-04T11:32:30Z,42.805,6.029,13.2983,4.59991,2470.273,2021-1-04T13:33:30Z
2021-01-04T11:35:33Z,42.805,6.029,13.2985,4.59991,2470.287,2021-1-04T13:36:33Z
2021-01-04T11:38:36Z,42.805,6.029,13.2986,4.59992,2470.227,2021-1-04T13:39:36Z
2021-01-04T11:41:39Z,42.805,6.029,13.2983,4.59990,2470.264,2021-1-04T13:42:40Z
2021-01-04T11:44:42Z,42.805,6.029,13.2986,4.59991,2470.264,2021-1-04T13:45:43Z
2021-01-04T11:47:45Z,42.805,6.029,13.2987,4.59991,2470.31,2021-1-04T13:48:46Z
2021-01-04T11:50:48Z,42.805,6.029,13.2986,4.59992,2470.273,2021-1-04T13:51:49Z
2021-01-04T11:53:52Z,42.805,6.029,13.2990,4.59992,2470.25,2021-1-04T13:54:52Z
2021-01-04T11:56:55Z,42.805,6.029,13.2990,4.59995,2470.264,2021-1-04T13:57:55Z
2021-01-04T11:59:58Z,42.805,6.029,13.2989,4.59992,2470.273,2021-1-04T14:00:58Z
2021-01-04T12:03:01Z,42.805,6.029,13.2989,4.59993,2470.227,2021-1-04T14:04:01Z
2021-01-04T12:06:04Z,42.805,6.029,13.2994,4.59995,2470.25,2021-1-04T14:07:05Z
2021-01-04T12:09:07Z,42.805,6.029,13.2990,4.59994,2470.287,2021-1-04T14:10:08Z
2021-01-04T12:12:10Z,42.805,6.029,13.2990,4.59993,2470.25,2021-1-04T14:13:11Z
2021-01-04T12:15:13Z,42.805,6.029,13.2991,4.59994,2470.287,2021-1-04T14:16:14Z
2021-01-04T12:18:17Z,42.805,6.029,13.2988,4.59995,2470.287,2021-1-04T14:19:17Z
2021-01-04T12:21:20Z,42.805,6.029,13.2991,4.59995,2470.25,2021-1-04T14:22:20Z
2021-01-04T12:24:23Z,42.805,6.029,13.2991,4.59995,2470.264,2021-1-04T14:25:23Z
2021-01-04T12:27:26Z,42.805,6.029,13.2991,4.59995,2470.25,2021-1-04T14:28:26Z
2021-01-04T12:30:29Z,42.805,6.029,13.2990,4.59996,2470.24,2021-1-04T14:31:30Z
2021-01-04T12:33:32Z,42.805,6.029,13.2991,4.59996,2470.264,2021-1-04T14:34:33Z
2021-01-04T12:36:35Z,42.805,6.029,13.2993,4.59996,2470.227,2021-1-04T14:37:36Z
2021-01-04T12:39:38Z,42.805,6.029,13.2991,4.59996,2470.24,2021-1-04T14:40:39Z
2021-01-04T12:42:42Z,42.805,6.029,13.2993,4.59995,2470.25,2021-1-04T14:43:42Z
2021-01-04T12:45:45Z,42.805,6.029,13.2990,4.59996,2470.227,2021-1-04T14:46:45Z
2021-01-04T12:48:48Z,42.805,6.029,13.2987,4.59994,2470.264,2021-1-04T14:49:48Z
2021-01-04T12:51:51Z,42.805,6.029,13.2992,4.59995,2470.203,2021-1-04T14:52:51Z
2021-01-04T12:54:54Z,42.805,6.029,13.2991,4.59995,2470.25,2021-1-04T14:55:55Z
2021-01-04T12:57:57Z,42.805,6.029,13.2989,4.59996,2470.227,2021-1-04T14:58:58Z
2021-01-04T13:01:00Z,42.805,6.029,13.2991,4.59996,2470.24,2021-1-04T15:02:01Z
2021-01-04T13:04:03Z,42.805,6.029,13.2990,4.59996,2470.24,2021-1-04T15:05:04Z
2021-01-04T13:07:06Z,42.805,6.029,13.2994,4.59995,2470.24,2021-1-04T15:08:07Z
2021-01-04T13:10:10Z,42.805,6.029,13.2990,4.59998,2470.264,2021-1-04T15:11:10Z
2021-01-04T13:13:13Z,42.805,6.029,13.2995,4.59998,2470.217,2021-1-04T15:14:13Z
2021-01-04T13:16:16Z,42.805,6.029,13.2994,4.59996,2470.18,2021-1-04T15:17:16Z
2021-01-04T13:19:19Z,42.805,6.029,13.2992,4.59995,2470.203,2021-1-04T15:20:20Z
2021-01-04T13:22:22Z,42.805,6.029,13.2989,4.59994,2470.203,2021-1-04T15:23:23Z
2021-01-04T13:25:25Z,42.805,6.029,13.2990,4.59994,2470.24,2021-1-04T15:26:26Z
2021-01-04T13:28:28Z,42.805,6.029,13.2990,4.59994,2470.227,2021-1-04T15:29:29Z
2021-01-04T13:31:31Z,42.805,6.029,13.2993,4.59999,2470.25,2021-1-04T15:32:32Z
2021-01-04T13:34:35Z,42.805,6.029,13.2992,4.59996,2470.133,2021-1-04T15:35:35Z
2021-01-04T13:37:38Z,42.805,6.029,13.2995,4.59997,2470.217,2021-1-04T15:38:38Z
2021-01-04T13:40:41Z,42.805,6.029,13.2990,4.59996,2470.203,2021-1-04T15:41:41Z
2021-01-04T13:43:44Z,42.805,6.029,13.2990,4.59993,2470.203,2021-1-04T15:44:45Z
2021-01-04T13:46:47Z,42.805,6.029,13.2990,4.59994,2470.194,2021-1-04T15:47:48Z
2021-01-04T13:49:50Z,42.805,6.029,13.2989,4.59995,2470.24,2021-1-04T15:50:51Z
2021-01-04T13:52:53Z,42.805,6.029,13.2985,4.59990,2470.189,2021-1-04T15:53:54Z
2021-01-04T13:55:56Z,42.805,6.029,13.2993,4.60001,2470.18,2021-1-04T15:56:57Z
2021-01-04T13:59:00Z,42.805,6.029,13.2994,4.59993,2470.18,2021-1-04T16:00:00Z
2021-01-04T14:02:03Z,42.805,6.029,13.2986,4.59990,2470.18,2021-1-04T16:03:03Z
2021-01-04T14:05:06Z,42.805,6.029,13.2988,4.59989,2470.18,2021-1-04T16:06:06Z
2021-01-04T14:08:09Z,42.805,6.029,13.2986,4.59986,2470.194,2021-1-04T16:09:09Z
2021-01-04T14:11:12Z,42.805,6.029,13.2984,4.59986,2470.203,2021-1-04T16:12:13Z
2021-01-04T14:14:15Z,42.805,6.029,13.2986,4.59986,2470.217,2021-1-04T16:15:16Z
2021-01-04T14:17:18Z,42.805,6.029,13.2983,4.59987,2470.194,2021-1-04T16:18:19Z
2021-01-04T14:20:21Z,42.805,6.029,13.2983,4.59986,2470.171,2021-1-04T16:21:22Z
2021-01-04T14:23:25Z,42.805,6.029,13.2983,4.59986,2470.194,2021-1-04T16:24:25Z
2021-01-04T14:26:28Z,42.805,6.029,13.2979,4.59985,2470.156,2021-1-04T16:27:28Z
2021-01-04T14:29:31Z,42.805,6.029,13.2979,4.59987,2470.203,2021-1-04T16:30:31Z
2021-01-04T14:32:34Z,42.805,6.029,13.2982,4.59985,2470.171,2021-1-04T16:33:34Z
2021-01-04T14:35:37Z,42.805,6.029,13.2986,4.59986,2470.217,2021-1-04T16:36:38Z
2021-01-04T14:38:40Z,42.805,6.029,13.2984,4.59985,2470.217,2021-1-04T16:39:41Z
2021-01-04T14:41:43Z,42.805,6.029,13.2984,4.59986,2470.143,2021-1-04T16:42:44Z
2021-01-04T14:44:46Z,42.805,6.029,13.2982,4.59986,2470.18,2021-1-04T16:45:47Z
2021-01-04T14:47:50Z,42.805,6.029,13.2983,4.59986,2470.18,2021-1-04T16:48:50Z
2021-01-04T14:50:53Z,42.805,6.029,13.2981,4.59986,2470.171,2021-1-04T16:51:53Z
2021-01-04T14:53:56Z,42.805,6.029,13.2981,4.59986,2470.18,2021-1-04T16:54:56Z
2021-01-04T14:56:59Z,42.805,6.029,13.2977,4.59986,2470.147,2021-1-04T16:57:59Z
2021-01-04T15:00:02Z,42.805,6.029,13.2981,4.59986,2470.156,2021-1-04T17:01:03Z
2021-01-04T15:03:05Z,42.805,6.029,13.2983,4.59986,2470.147,2021-1-04T17:04:06Z
2021-01-04T15:06:08Z,42.805,6.029,13.2983,4.59986,2470.133,2021-1-04T17:07:09Z
2021-01-04T15:09:11Z,42.805,6.029,13.2982,4.59986,2470.156,2021-1-04T17:10:12Z
2021-01-04T15:12:15Z,42.805,6.029,13.2984,4.59987,2470.18,2021-1-04T17:13:15Z
2021-01-04T15:15:18Z,42.805,6.029,13.2983,4.59988,2470.133,2021-1-04T17:16:18Z